sat.trackr.live / text

‹ back to catalog

STARLINK-3950

NORAD 53264 · 2022-086Y

PAYLOAD ACTIVE UNKNOWN

§ Identity

Operator
Country
US
Launch date
2022-07-24
Launch site
AFETR
Launch vehicle
Mass (kg)
RCS (m²)

Purposes: comms

External: N2YO · Heavens-Above · Gunter

§ Orbital elements

Epoch: 2026-09-20T01:43:37.388064Z

Period
93.85 min
Inclination
53.1613°
Eccentricity
0.0000745
Mean motion
15.34366941 rev/d
Perigee alt
462.3 km
Apogee alt
463.3 km
Semi-major
6,840.9 km
B*
1.5996e-4
RAAN
28.0568°
Arg perigee
74.4938°
Mean anomaly
285.6146°
Rev number
23,059

§ Raw data

STARLINK-39501 53264U 22086Y   26263.07196051  .00005027  00000+0  15996-3 0  99922 53264  53.1613  28.0568 0000745  74.4938 285.6146 15.34366941230594

JSON: /api/v1/satellites/53264 · /tle

For live sub-satellite position, see the globe view (requires WebGL).

§ Visibility from observer

Set your observer location to see the next 7 days of passes ≥ 10°. The values pass through the URL so the page stays shareable.

No JS? Fill the form by hand. The geolocation button needs JavaScript.